Terug naar catalogus

STARLINK-35587

ActiefCommunicatieVLEO
NORAD 66158·PAYLOAD·🇺🇸 United States

Gelanceerd Oct 25, 2025 vanaf Cape Canaveral Space Force Station

Loading…

Volgende Passages (komende 24 uur)

TLE

VersSource: CelesTrak SupGP

Epoch: Sep 14, 2026, 15:06 UTC

1 66158C 25240N   26257.62965278 -.00024119  00000+0 -71297-3 0  2570
2 66158  53.1563 263.2657 0001230  75.3953 277.6236 15.34386598    16

Volg STARLINK-35587 in realtime met AllMySat

Download on the App Store